| time (UTC) | temp F | wind direction | speed knots | gust knots | rain 1hr in | rain 24hr in | rain mn in | humidity % | barometer mb |
| 20260504140110 | 48 | 274 | 4.3 | 7.0 | 0.00 | 0.00 | 0.00 | 60 | 1015.8 |
| 20260504120109 | 46 | 274 | 3.5 | 5.2 | 0.00 | 0.00 | 0.00 | 61 | 1015.8 |
| 20260504110105 | 46 | 255 | 0.9 | 1.7 | 0.00 | 0.00 | 0.00 | 60 | 1016.1 |
| 20260504081603 | 51 | 20 | 5.2 | 11.3 | 0.00 | 0.00 | 0.00 | 46 | 1015.1 |
| 20260504060107 | 55 | 43 | 6.1 | 13.9 | 0.00 | 0.00 | 0.00 | 35 | 1011.1 |
| 20260504044554 | 59 | 58 | 5.2 | 9.6 | 0.00 | 0.00 | 0.00 | 34 | 1009.0 |
| 20260504043101 | 60 | 44 | 7.0 | 11.3 | 0.00 | 0.00 | 0.00 | 33 | 1008.6 |
| 20260504041555 | 61 | 10 | 6.1 | 11.3 | 0.00 | 0.00 | 0.00 | 32 | 1008.5 |
| 20260504040054 | 61 | 49 | 6.1 | 11.3 | 0.00 | 0.00 | 0.00 | 31 | 1008.2 |
| 20260504034552 | 61 | 48 | 4.3 | 8.7 | 0.00 | 0.00 | 0.00 | 31 | 1007.9 |
| 20260504033108 | 62 | 56 | 5.2 | 13.9 | 0.00 | 0.00 | 0.00 | 28 | 1007.3 |
| 20260504031601 | 63 | 29 | 4.3 | 10.4 | 0.00 | 0.00 | 0.00 | 25 | 1007.0 |
| 20260504030052 | 65 | 4 | 3.5 | 6.1 | 0.00 | 0.00 | 0.00 | 22 | 1006.7 |
| 20260504024601 | 66 | 1 | 1.7 | 5.2 | 0.00 | 0.00 | 0.00 | 21 | 1006.4 |
| 20260504023054 | 68 | 359 | 2.6 | 7.8 | 0.00 | 0.00 | 0.00 | 21 | 1006.4 |
| 20260504021556 | 69 | 340 | 2.6 | 6.1 | 0.00 | 0.00 | 0.00 | 19 | 1006.3 |
| 20260504020056 | 71 | 53 | 3.5 | 11.3 | 0.00 | 0.00 | 0.00 | 19 | 1006.4 |
| 20260504014558 | 73 | 36 | 3.5 | 9.6 | 0.00 | 0.00 | 0.00 | 19 | 1006.3 |
| 20260504013109 | 74 | 22 | 6.1 | 12.2 | 0.00 | 0.00 | 0.00 | 18 | 1006.4 |
| 20260504011554 | 75 | 338 | 6.1 | 12.2 | 0.00 | 0.00 | 0.00 | 17 | 1006.2 |
| 20260504010056 | 76 | 313 | 6.1 | 11.3 | 0.00 | 0.00 | 0.00 | 17 | 1006.4 |
| 20260504004602 | 76 | 7 | 5.2 | 7.8 | 0.00 | 0.00 | 0.00 | 16 | 1006.5 |
| 20260504003054 | 77 | 304 | 6.1 | 10.4 | 0.00 | 0.00 | 0.00 | 15 | 1006.7 |
| 20260504001556 | 77 | 312 | 7.0 | 11.3 | 0.00 | 0.00 | 0.00 | 15 | 1006.8 |
| 20260503234548 | 77 | 332 | 7.8 | 12.2 | 0.00 | 0.00 | 0.00 | 15 | 1007.0 |
| 20260503233058 | 77 | 308 | 7.0 | 11.3 | 0.00 | 0.00 | 0.00 | 15 | 1007.1 |
| 20260503231555 | 76 | 316 | 6.1 | 13.9 | 0.00 | 0.00 | 0.00 | 15 | 1007.2 |
| 20260503230053 | 77 | 293 | 7.0 | 13.9 | 0.00 | 0.00 | 0.00 | 15 | 1007.3 |
| 20260503224550 | 76 | 307 | 7.8 | 12.2 | 0.00 | 0.00 | 0.00 | 16 | 1007.6 |
| 20260503223049 | 76 | 300 | 10.4 | 18.2 | 0.00 | 0.00 | 0.00 | 15 | 1007.7 |
| 20260503221555 | 76 | 281 | 4.3 | 13.9 | 0.00 | 0.00 | 0.00 | 16 | 1007.8 |
| 20260503220100 | 75 | 349 | 5.2 | 8.7 | 0.00 | 0.00 | 0.00 | 16 | 1008.1 |
| 20260503214605 | 75 | 322 | 6.1 | 12.2 | 0.00 | 0.00 | 0.00 | 15 | 1008.2 |
| 20260503213054 | 75 | 294 | 7.0 | 13.0 | 0.00 | 0.00 | 0.00 | 17 | 1008.5 |
| 20260503211603 | 74 | 309 | 4.3 | 10.4 | 0.00 | 0.00 | 0.00 | 17 | 1008.6 |
| 20260503210055 | 74 | 300 | 6.1 | 12.2 | 0.00 | 0.00 | 0.00 | 18 | 1008.9 |
| 20260503204559 | 74 | 293 | 7.8 | 14.8 | 0.00 | 0.00 | 0.00 | 18 | 1009.2 |
| 20260503203053 | 74 | 290 | 8.7 | 13.0 | 0.00 | 0.00 | 0.00 | 17 | 1009.5 |
| 20260503201552 | 73 | 289 | 6.1 | 12.2 | 0.00 | 0.00 | 0.00 | 17 | 1009.6 |
| 20260503200101 | 73 | 284 | 6.1 | 12.2 | 0.00 | 0.00 | 0.00 | 17 | 1009.7 |
| 20260503194555 | 74 | 291 | 7.0 | 11.3 | 0.00 | 0.00 | 0.00 | 19 | 1010.1 |
| 20260503193059 | 73 | 307 | 4.3 | 13.0 | 0.00 | 0.00 | 0.00 | 19 | 1010.1 |
| 20260503191551 | 73 | 304 | 7.8 | 13.9 | 0.00 | 0.00 | 0.00 | 18 | 1010.4 |
| 20260503190058 | 73 | 267 | 8.7 | 16.5 | 0.00 | 0.00 | 0.00 | 20 | 1010.7 |
| 20260503184603 | 73 | 301 | 7.8 | 16.5 | 0.00 | 0.00 | 0.00 | 21 | 1010.8 |
| 20260503183058 | 72 | 295 | 6.1 | 11.3 | 0.00 | 0.00 | 0.00 | 21 | 1011.1 |
| 20260503181602 | 70 | 319 | 7.0 | 12.2 | 0.00 | 0.00 | 0.00 | 22 | 1011.2 |
| 20260503180100 | 70 | 290 | 6.1 | 10.4 | 0.00 | 0.00 | 0.00 | 25 | 1011.5 |
| 20260503174620 | 69 | 283 | 5.2 | 8.7 | 0.00 | 0.00 | 0.00 | 26 | 1011.6 |
| 20260503173058 | 67 | 302 | 5.2 | 8.7 | 0.00 | 0.00 | 0.00 | 27 | 1011.9 |
| 20260503171558 | 66 | 302 | 6.1 | 9.6 | 0.00 | 0.00 | 0.00 | 29 | 1012.1 |